SAS82G EDDN-ENGM

Flight info

Callsign SAS82G
Flight time N/A
Altitude 36000
Route ERETO1G/28 ERETO DCT LONLI M726 EMBOX DCT BUMIL DCT GIMRU DCT SABAK L997 LUNIP
Aircraft A320/M-SDE3FGHIRWY/LB1

Departure

Time 2026-05-07 13:48
Airport Nuremberg Airport (EDDN)

Arrival

Time N/A
Airport Oslo-Gardermoen International Airport (ENGM)
Time Latitude Longitude Altitude Speed Heading
2026-05-07 13:12 49.49520 11.07725 1027 ft 0 kts 188°
2026-05-07 13:32 49.49532 11.07727 1007 ft 4 kts 189°
2026-05-07 13:33 49.49559 11.07733 1035 ft 4 kts 184°
2026-05-07 13:33 49.49585 11.07734 1028 ft 4 kts 175°
2026-05-07 13:33 49.49596 11.07732 1030 ft 0 kts 175°
2026-05-07 13:35 49.49595 11.07737 1030 ft 1 kts 140°
2026-05-07 13:35 49.49588 11.07763 1029 ft 5 kts 109°
2026-05-07 13:36 49.49580 11.07834 1030 ft 8 kts 100°
2026-05-07 13:36 49.49576 11.07868 1030 ft 1 kts 99°
2026-05-07 13:36 49.49572 11.07906 1030 ft 0 kts 99°
2026-05-07 13:37 49.49569 11.07936 1030 ft 7 kts 99°
2026-05-07 13:37 49.49560 11.08029 1030 ft 10 kts 98°
2026-05-07 13:37 49.49549 11.08141 1028 ft 11 kts 98°
2026-05-07 13:37 49.49537 11.08260 1031 ft 11 kts 98°
2026-05-07 13:38 49.49556 11.08355 1033 ft 9 kts 26°
2026-05-07 13:38 49.49614 11.08412 1031 ft 12 kts 77°
2026-05-07 13:38 49.49606 11.08533 1033 ft 11 kts 99°
2026-05-07 13:38 49.49594 11.08647 1034 ft 11 kts 98°
2026-05-07 13:39 49.49587 11.08729 1034 ft 0 kts 97°
2026-05-07 13:39 49.49587 11.08737 1035 ft 1 kts 97°
2026-05-07 13:39 49.49585 11.08754 1035 ft 2 kts 98°
2026-05-07 13:39 49.49580 11.08804 1035 ft 8 kts 99°
2026-05-07 13:40 49.49568 11.08919 1037 ft 11 kts 99°
2026-05-07 13:40 49.49561 11.08993 1037 ft 8 kts 97°
2026-05-07 13:40 49.49552 11.09088 1037 ft 10 kts 99°
2026-05-07 13:40 49.49544 11.09170 1038 ft 3 kts 98°
2026-05-07 13:41 49.49540 11.09204 1039 ft 4 kts 98°
2026-05-07 13:41 49.49536 11.09245 1040 ft 4 kts 99°
2026-05-07 13:41 49.49531 11.09295 1041 ft 4 kts 99°
2026-05-07 13:41 49.49531 11.09301 1041 ft 0 kts 98°
2026-05-07 13:44 49.49530 11.09302 1041 ft 1 kts 98°
2026-05-07 13:44 49.49531 11.09341 1041 ft 8 kts 81°
2026-05-07 13:44 49.49564 11.09428 1042 ft 10 kts 54°
2026-05-07 13:44 49.49587 11.09476 1042 ft 0 kts 53°
2026-05-07 13:45 49.49592 11.09487 1042 ft 4 kts 53°
2026-05-07 13:45 49.49596 11.09495 1042 ft 0 kts 53°
2026-05-07 13:46 49.49602 11.09506 1042 ft 4 kts 52°
2026-05-07 13:46 49.49619 11.09541 1043 ft 4 kts 52°
2026-05-07 13:46 49.49654 11.09568 1044 ft 10 kts
2026-05-07 13:46 49.49702 11.09512 1044 ft 11 kts 282°
2026-05-07 13:47 49.49705 11.09481 1043 ft 0 kts 279°
2026-05-07 13:47 49.49709 11.09439 1043 ft 14 kts 278°
2026-05-07 13:47 49.49761 11.08914 1035 ft 82 kts 278°
2026-05-07 13:48 49.49876 11.07753 1035 ft 137 kts 278°
2026-05-07 13:48 49.50034 11.06124 1382 ft 158 kts 278°
2026-05-07 13:48 49.50197 11.04501 2127 ft 149 kts 279°
2026-05-07 13:48 49.50336 11.02915 2552 ft 153 kts 277°
2026-05-07 13:49 49.50448 11.01256 2937 ft 158 kts 276°
2026-05-07 13:49 49.50558 10.99573 3424 ft 160 kts 278°
2026-05-07 13:49 49.50740 10.97770 3614 ft 181 kts 280°
2026-05-07 13:49 49.50966 10.95739 3778 ft 203 kts 280°
2026-05-07 13:50 49.51530 10.93660 4012 ft 225 kts 313°
2026-05-07 13:50 49.52929 10.92527 4588 ft 238 kts 350°
2026-05-07 13:50 49.54612 10.92594 5303 ft 243 kts 360°
2026-05-07 13:50 49.56337 10.92689 5831 ft 258 kts 358°
2026-05-07 13:51 49.58174 10.92718 6441 ft 268 kts 357°
2026-05-07 13:51 49.60064 10.92733 7162 ft 273 kts 357°
2026-05-07 13:51 49.61976 10.92754 7900 ft 276 kts 357°
2026-05-07 13:51 49.63909 10.92785 8628 ft 280 kts 357°
2026-05-07 13:52 49.65873 10.92823 9363 ft 283 kts 357°
2026-05-07 13:52 49.67855 10.92881 10084 ft 287 kts
2026-05-07 13:52 49.69829 10.93492 10759 ft 292 kts 17°
2026-05-07 13:52 49.71707 10.94929 11056 ft 314 kts 33°
2026-05-07 13:53 49.73450 10.97160 11187 ft 336 kts 39°
2026-05-07 13:53 49.75274 10.99599 11366 ft 355 kts 39°
2026-05-07 13:53 49.77135 11.02080 11819 ft 362 kts 39°
2026-05-07 13:53 49.79054 11.04638 12388 ft 366 kts 39°
2026-05-07 13:54 49.80988 11.07215 12982 ft 369 kts 39°
2026-05-07 13:54 49.82872 11.09917 13586 ft 374 kts 46°
2026-05-07 13:54 49.84469 11.13153 14160 ft 379 kts 57°
2026-05-07 13:54 49.85693 11.16802 14691 ft 383 kts 63°
2026-05-07 13:55 49.86840 11.20539 15227 ft 386 kts 63°
2026-05-07 13:55 49.87931 11.23953 15732 ft 387 kts 59°
2026-05-07 13:55 49.89499 11.27323 16225 ft 387 kts 45°
2026-05-07 13:55 49.91590 11.29944 16758 ft 386 kts 29°
2026-05-07 13:56 49.94050 11.31578 17291 ft 386 kts 13°
2026-05-07 13:56 49.96699 11.32098 17849 ft 385 kts 356°
2026-05-07 13:56 49.99344 11.31469 18393 ft 386 kts 341°
2026-05-07 13:56 50.01789 11.29725 18919 ft 386 kts 326°
2026-05-07 13:57 50.03931 11.27193 19428 ft 388 kts 322°
2026-05-07 13:57 50.06232 11.24981 19965 ft 391 kts 333°
2026-05-07 13:57 50.08786 11.23454 20504 ft 395 kts 343°
2026-05-07 13:57 50.11503 11.22707 21023 ft 400 kts 355°
2026-05-07 13:58 50.14301 11.22645 21494 ft 404 kts 359°
2026-05-07 13:58 50.17124 11.22673 21944 ft 406 kts 359°
2026-05-07 13:58 50.19903 11.22703 22364 ft 408 kts 359°
2026-05-07 13:58 50.22786 11.22729 22792 ft 410 kts 359°
2026-05-07 13:59 50.25646 11.22751 23216 ft 412 kts 359°
2026-05-07 13:59 50.28505 11.22767 23611 ft 414 kts 359°
2026-05-07 13:59 50.31392 11.22781 23949 ft 416 kts 360°
2026-05-07 13:59 50.34261 11.22794 24281 ft 417 kts
2026-05-07 14:00 50.37168 11.22646 24629 ft 418 kts 355°
2026-05-07 14:00 50.40074 11.22210 24954 ft 420 kts 355°
2026-05-07 14:00 50.42989 11.21774 25285 ft 422 kts 355°
2026-05-07 14:00 50.45915 11.21335 25587 ft 423 kts 355°
2026-05-07 14:01 50.48853 11.20892 25892 ft 425 kts 355°
2026-05-07 14:01 50.51806 11.20445 26202 ft 427 kts 355°
2026-05-07 14:01 50.54794 11.19989 26459 ft 430 kts 355°
2026-05-07 14:01 50.57759 11.19538 26729 ft 433 kts 355°
2026-05-07 14:02 50.60759 11.19081 27150 ft 432 kts 355°
2026-05-07 14:02 50.63786 11.18618 27589 ft 431 kts 355°
2026-05-07 14:02 50.66773 11.18161 28023 ft 431 kts 355°
2026-05-07 14:02 50.69751 11.17705 28458 ft 430 kts 355°
2026-05-07 14:03 50.72728 11.17248 28928 ft 429 kts 355°
2026-05-07 14:03 50.75694 11.16796 29402 ft 428 kts 355°
2026-05-07 14:03 50.78659 11.16343 29844 ft 427 kts 356°
2026-05-07 14:03 50.81620 11.15888 30257 ft 427 kts 356°
2026-05-07 14:04 50.84579 11.15437 30602 ft 426 kts 356°
2026-05-07 14:04 50.87528 11.14993 30945 ft 427 kts 355°
2026-05-07 14:04 50.90482 11.14547 31310 ft 427 kts 355°
2026-05-07 14:04 50.93445 11.14094 31669 ft 427 kts 355°
2026-05-07 14:05 50.96402 11.13634 32004 ft 427 kts 355°
2026-05-07 14:05 50.99362 11.13173 32335 ft 428 kts 355°
2026-05-07 14:05 51.02324 11.12712 32672 ft 428 kts 354°
2026-05-07 14:05 51.05283 11.12254 32989 ft 428 kts 354°
2026-05-07 14:06 51.08257 11.11795 33297 ft 429 kts 354°
2026-05-07 14:06 51.11234 11.11379 33598 ft 430 kts 358°
2026-05-07 14:06 51.14228 11.11555 33894 ft 431 kts
2026-05-07 14:06 51.17145 11.12371 34156 ft 432 kts 10°
2026-05-07 14:07 51.20102 11.13294 34361 ft 433 kts 10°
2026-05-07 14:07 51.23069 11.14222 34578 ft 434 kts 10°
2026-05-07 14:07 51.26035 11.15148 34785 ft 435 kts 10°
2026-05-07 14:07 51.29008 11.16073 35023 ft 435 kts 10°
2026-05-07 14:08 51.31978 11.16996 35271 ft 435 kts 10°
2026-05-07 14:08 51.34956 11.17926 35497 ft 436 kts 10°
2026-05-07 14:08 51.37935 11.18859 35722 ft 436 kts 11°
2026-05-07 14:08 51.40904 11.19794 35915 ft 437 kts 10°
2026-05-07 14:09 51.43889 11.20733 36025 ft 439 kts 10°
2026-05-07 14:09 51.49954 11.22635 36044 ft 448 kts 10°
2026-05-07 14:10 51.56152 11.24587 36054 ft 457 kts 10°
2026-05-07 14:10 51.59213 11.25570 35811 ft 461 kts 11°
2026-05-07 14:10 51.62288 11.26548 35768 ft 451 kts
2026-05-07 14:10 51.65424 11.27363 35981 ft 450 kts
2026-05-07 14:11 51.68544 11.27994 36062 ft 454 kts
2026-05-07 14:11 51.74866 11.29032 36062 ft 458 kts
2026-05-07 14:12 51.79998 11.29901 36068 ft 459 kts